Regional Weather Roundup
Issued by NWS

Home | Current Version | Previous Version | Graphics & Text | Print | Product List | Glossary On
Versions: 1 2 3 4 5 6 7 8 9 10 11 12 13 14 15 16 17 18 19 20 21 22 23 24 25 26 27 28 29 30 31 32 33 34 35 36 37 38 39 40 41 42 43 44 45 46 47 48 49 50
000
ASUS43 KOAX 231910
RWRNE

WEATHER ROUNDUP FOR NEBRASKA
NATIONAL WEATHER SERVICE OMAHA NE
200 PM CDT TUE AUG 23 2016

NOTES: SATELLITE DATA IS BEING USED TO AUGMENT CLOUD COVER ABOVE
       12000 FEET.
       "FAIR" INDICATES FEW OR NO CLOUDS BELOW 12,000 FEET WITH NO
       SIGNIFICANT WEATHER AND/OR OBSTRUCTIONS TO VISIBILITY.

  * THESE STATIONS DO NOT REPORT WEATHER SUCH AS RAIN...SNOW OR FOG.

NEZ001>004-019>022-054>056-232000-
NEBRASKA PANHANDLE

CITY           SKY/WX    TMP DP  RH WIND       PRES   REMARKS
SCOTTSBLUFF    SUNNY     85  34  16 NW18      29.97R
ALLIANCE       SUNNY     83  37  19 NW21G28   29.94R
CHADRON        SUNNY     85  33  15 VRB6      29.92R
KIMBALL        SUNNY     81  37  20 NW17G24   30.03S
SIDNEY         SUNNY     86  34  15 N21G29    29.99S
$$

NEZ057>060-069>072-079>082-232000-
SOUTHWEST NEBRASKA

CITY           SKY/WX    TMP DP  RH WIND       PRES   REMARKS
NORTH PLATTE   SUNNY     87  63  44 W5        29.83S
IMPERIAL       SUNNY     91  39  16 NW17G23   29.88S
LEXINGTON      SUNNY     85  65  50 S12       29.83S
MCCOOK         SUNNY     85  65  51 VRB3      29.83F
OGALLALA       SUNNY     93  22   7 NW18G26   29.88R
$$

NEZ005>010-023>029-035>040-094-232000-
NORTH CENTRAL NEBRASKA

CITY           SKY/WX    TMP DP  RH WIND       PRES   REMARKS
VALENTINE      SUNNY     84  44  24 NW17G24   29.82R
AINSWORTH      SUNNY     86  62  43 W9        29.80S
BROKEN BOW     MOSUNNY   83  67  58 S10       29.82S
O`NEILL        CLOUDY    78  66  68 S10       29.82R
ORD            MOSUNNY   83  66  56 S15       29.79F
THEDFORD       SUNNY     89  58  35 W10       29.83S
$$

NEZ041-046>049-061>064-073>077-083>087-232000-
SOUTH CENTRAL NEBRASKA

CITY           SKY/WX    TMP DP  RH WIND       PRES   REMARKS
GRAND ISLAND   PTSUNNY   87  69  54 S20G25    29.82F HX  91
AURORA         MOSUNNY   85  69  58 S15G29    29.82F
HASTINGS       PTSUNNY   87  70  56 S13G26    29.83F HX  92
HEBRON         PTSUNNY   84  71  66 S17       29.84F
HOLDREGE       SUNNY     87  63  44 S13G18    29.82F
KEARNEY *      MOSUNNY   88  68  51 S17G23    29.80F HX  91
YORK           CLOUDY    82  72  69 S18G24    29.84S
$$

NEZ011>018-030>034-042>045-232000-
NORTHEAST NEBRASKA

CITY           SKY/WX    TMP DP  RH WIND       PRES   REMARKS
NORFOLK        CLOUDY    76  70  82 SE9       29.82F
ALBION         CLOUDY    81  69  67 S13       29.82S
BLAIR          CLOUDY    80  72  76 S21       29.87F
FREMONT        CLOUDY    81  71  72 S17G23    29.86S
TEKAMAH        CLOUDY    78  70  76 SE18G26   29.86F
WAYNE          CLOUDY    68  68  98 E7        29.86F
$$

NEZ050>053-065>068-078-088>093-232000-
SOUTHEAST NEBRASKA

CITY           SKY/WX    TMP DP  RH WIND       PRES   REMARKS
LINCOLN        CLOUDY    86  72  62 S20G25    29.86S HX  92
OMAHA EPPLEY   PTSUNNY   82  71  69 S24G31    29.88F
BEATRICE       MOSUNNY   85  72  63 S17G23    29.86F HX  91
FALLS CITY     CLOUDY    83  73  72 SE15      29.91F
NEBRASKA CITY  CLOUDY    81  73  77 S18G24    29.90F
PLATTSMOUTH    CLOUDY    80  73  78 SE14G21   29.90F
$$

NEZ044-045-051>053-067-232000-
OMAHA AREA

CITY           SKY/WX    TMP DP  RH WIND       PRES   REMARKS
OMAHA EPPLEY   PTSUNNY   82  71  69 S24G31    29.88F
BLAIR          CLOUDY    80  72  76 S21       29.87F
FREMONT        CLOUDY    81  71  72 S17G23    29.86S
MILLARD        CLOUDY    81  73  75 SE16G24   29.87F
OFFUTT AFB     MOSUNNY   81  73  76 SE21G28   29.88F
PLATTSMOUTH    CLOUDY    80  73  78 SE14G21   29.90F
WAHOO          CLOUDY    81  72  74 S16G23    29.85F
$$




USA.gov is the U.S. government's official web portal to all federal, state and local government web resources and services.